FW0201 Weather Reports


Display with metric or nautical units.
time (UTC)temp
F
wind
direction
speed
MPH
gust
MPH
rain 1hr
in
rain 24hr
in
rain mn
in
humidity
%
barometer
mb
20181216135006 23 135 2.0 2.0 0.00 0.00 0.00 72 1031.0
20181216134505 23 135 2.0 2.0 0.00 0.00 0.00 72 1031.0
20181216134007 23 112 3.0 4.0 0.00 0.00 0.00 72 1031.0
20181216133505 23 112 2.0 3.0 0.00 0.00 0.00 72 1030.9
20181216133009 23 112 3.0 4.0 0.00 0.00 0.00 72 1030.9
20181216132505 22 112 2.0 3.0 0.00 0.00 0.00 73 1030.8
20181216132006 22 112 2.0 3.0 0.00 0.00 0.00 73 1030.8
20181216131506 22 112 3.0 3.0 0.00 0.00 0.00 73 1030.6
20181216131006 22 112 3.0 3.0 0.00 0.00 0.00 72 1030.6
20181216130506 22 135 2.0 2.0 0.00 0.00 0.00 73 1030.6
20181216130007 22 135 2.0 2.0 0.00 0.00 0.00 72 1030.7
20181216125505 22 135 2.0 3.0 0.00 0.00 0.00 72 1030.4
20181216125007 23 157 2.0 3.0 0.00 0.00 0.00 72 1030.6
20181216124506 22 157 3.0 3.0 0.00 0.00 0.00 72 1030.6
20181216124005 23 157 2.0 3.0 0.00 0.00 0.00 72 1030.3
20181216123505 23 157 3.0 4.0 0.00 0.00 0.00 71 1030.4
20181216123007 22 157 3.0 4.0 0.00 0.00 0.00 72 1030.4
20181216122505 22 157 2.0 3.0 0.00 0.00 0.00 72 1030.2
20181216122007 22 157 3.0 3.0 0.00 0.00 0.00 71 1030.1
20181216121505 22 157 3.0 3.0 0.00 0.00 0.00 72 1030.1
20181216121006 23 157 3.0 4.0 0.00 0.00 0.00 72 1030.1
20181216120505 22 157 3.0 5.0 0.00 0.00 0.00 72 1030.2
20181216120008 21 157 3.0 4.0 0.00 0.00 0.00 71 1030.0
20181216115505 22 136 3.0 4.0 0.00 0.00 0.00 70 1029.8
20181216115006 23 112 3.0 4.0 0.00 0.00 0.00 70 1029.7
20181216114505 23 112 3.0 4.0 0.00 0.00 0.00 70 1029.7
20181216114007 23 135 3.0 4.0 0.00 0.00 0.00 70 1029.8
20181216113505 23 137 3.0 3.0 0.00 0.00 0.00 69 1029.8
20181216113007 24 157 3.0 3.0 0.00 0.00 0.00 69 1029.7
20181216112505 24 157 2.0 3.0 0.00 0.00 0.00 69 1029.8
20181216112007 24 157 2.0 3.0 0.00 0.00 0.00 69 1029.9
20181216111506 25 157 2.0 3.0 0.00 0.00 0.00 68 1029.9
20181216111006 25 157 2.0 3.0 0.00 0.00 0.00 69 1029.8
20181216110506 24 157 3.0 4.0 0.00 0.00 0.00 70 1029.7
20181216110008 24 157 2.0 3.0 0.00 0.00 0.00 69 1029.7
20181216105007 24 157 2.0 3.0 0.00 0.00 0.00 70 1029.5
20181216104505 23 157 3.0 3.0 0.00 0.00 0.00 70 1029.3
20181216104005 24 135 3.0 3.0 0.00 0.00 0.00 69 1029.3
20181216103506 23 157 3.0 3.0 0.00 0.00 0.00 71 1029.3
20181216103008 23 157 3.0 4.0 0.00 0.00 0.00 71 1029.3
20181216102505 23 135 3.0 3.0 0.00 0.00 0.00 70 1029.1
20181216102006 23 135 3.0 4.0 0.00 0.00 0.00 70 1029.0
20181216101505 23 135 3.0 3.0 0.00 0.00 0.00 70 1029.3
20181216101007 23 135 3.0 4.0 0.00 0.00 0.00 70 1029.1
20181216100506 23 119 4.0 5.0 0.00 0.00 0.00 70 1029.1
20181216100007 23 120 4.0 4.0 0.00 0.00 0.00 70 1029.1
20181216095505 23 135 3.0 3.0 0.00 0.00 0.00 69 1029.3
20181216095006 23 135 3.0 3.0 0.00 0.00 0.00 70 1029.4
20181216094506 23 135 2.0 3.0 0.00 0.00 0.00 70 1029.2
20181216094006 22 135 2.0 3.0 0.00 0.00 0.00 70 1029.4
20181216093505 22 135 2.0 3.0 0.00 0.00 0.00 69 1029.3
20181216093007 23 135 3.0 3.0 0.00 0.00 0.00 70 1029.3
20181216092505 23 157 3.0 3.0 0.00 0.00 0.00 70 1029.3
20181216092007 23 157 2.0 3.0 0.00 0.00 0.00 70 1029.3
20181216091007 23 135 3.0 4.0 0.00 0.00 0.00 70 1029.5
20181216090505 22 156 3.0 4.0 0.00 0.00 0.00 71 1029.4
20181216090008 22 157 3.0 3.0 0.00 0.00 0.00 71 1029.3
20181216085005 22 157 3.0 4.0 0.00 0.00 0.00 71 1029.3
20181216084505 22 146 3.0 3.0 0.00 0.00 0.00 70 1029.1
20181216084007 22 135 2.0 3.0 0.00 0.00 0.00 70 1029.1
20181216083505 23 135 3.0 3.0 0.00 0.00 0.00 69 1029.0
20181216083007 22 157 4.0 5.0 0.00 0.00 0.00 71 1029.0
20181216082505 22 147 3.0 3.0 0.00 0.00 0.00 71 1028.9
20181216082006 22 157 2.0 3.0 0.00 0.00 0.00 71 1028.9
20181216081505 22 157 2.0 3.0 0.00 0.00 0.00 70 1028.8
20181216081007 22 157 2.0 3.0 0.00 0.00 0.00 71 1028.7
20181216080505 22 157 2.0 2.0 0.00 0.00 0.00 70 1028.6
20181216080006 22 157 2.0 2.0 0.00 0.00 0.00 70 1028.6
20181216075505 23 157 2.0 3.0 0.00 0.00 0.00 70 1028.5
20181216075006 23 157 2.0 4.0 0.00 0.00 0.00 70 1028.5
20181216074505 22 172 3.0 4.0 0.00 0.00 0.00 71 1028.6
20181216074006 22 157 2.0 3.0 0.00 0.00 0.00 69 1028.5
20181216073505 22 157 2.0 3.0 0.00 0.00 0.00 70 1028.5
20181216073008 22 157 2.0 3.0 0.00 0.00 0.00 70 1028.5
20181216072505 22 157 2.0 3.0 0.00 0.00 0.00 69 1028.5
20181216072006 22 157 3.0 3.0 0.00 0.00 0.00 68 1028.6
20181216071505 22 157 3.0 4.0 0.00 0.00 0.00 68 1028.4
20181216071007 22 157 3.0 4.0 0.00 0.00 0.00 68 1028.4
20181216070504 22 173 4.0 6.0 0.00 0.00 0.00 68 1028.5
20181216065506 22 162 4.0 5.0 0.00 0.00 0.00 67 1028.3
20181216065006 22 157 4.0 5.0 0.00 0.00 0.00 66 1028.3
20181216064505 23 157 3.0 5.0 0.00 0.00 0.00 66 1028.2
20181216064006 23 157 4.0 5.0 0.00 0.00 0.00 67 1028.4
20181216063505 23 163 4.0 6.0 0.00 0.00 0.00 66 1028.2
20181216063013 23 162 4.0 6.0 0.00 0.00 0.00 66 1028.3
20181216062506 24 157 3.0 5.0 0.00 0.00 0.00 65 1028.2
20181216062007 24 157 4.0 6.0 0.00 0.00 0.00 65 1028.2
20181216061505 23 168 4.0 5.0 0.00 0.00 0.00 66 1028.2
20181216061007 23 169 3.0 5.0 0.00 0.00 0.00 66 1028.1
20181216060506 24 157 4.0 5.0 0.00 0.00 0.00 66 1028.0
20181216060007 24 180 4.0 5.0 0.00 0.00 0.00 66 1028.0
20181216055506 24 180 3.0 4.0 0.00 0.00 0.00 66 1028.0
20181216055006 23 180 3.0 4.0 0.00 0.00 0.00 66 1027.9
20181216054505 23 174 3.0 4.0 0.00 0.00 0.00 66 1027.9
20181216054006 24 157 3.0 4.0 0.00 0.00 0.00 67 1027.8
20181216053505 24 157 4.0 5.0 0.00 0.00 0.00 66 1027.9
20181216053007 23 157 3.0 5.0 0.00 0.00 0.00 66 1027.8
20181216052505 23 157 3.0 3.0 0.00 0.00 0.00 66 1027.7
20181216052006 23 157 2.0 4.0 0.00 0.00 0.00 65 1027.7
20181216051505 23 157 2.0 4.0 0.00 0.00 0.00 65 1027.5
20181216051007 23 157 2.0 4.0 0.00 0.00 0.00 65 1027.5
20181216050505 23 157 3.0 4.0 0.00 0.00 0.00 64 1027.5
20181216050006 23 157 3.0 4.0 0.00 0.00 0.00 64 1027.4
20181216045505 24 157 2.0 3.0 0.00 0.00 0.00 62 1027.3
20181216045006 24 157 3.0 3.0 0.00 0.00 0.00 62 1027.2
20181216044505 24 157 3.0 3.0 0.00 0.00 0.00 63 1027.2
20181216044006 24 157 4.0 5.0 0.00 0.00 0.00 63 1027.1
20181216043505 24 157 3.0 4.0 0.00 0.00 0.00 64 1027.1
20181216043007 23 157 3.0 4.0 0.00 0.00 0.00 65 1027.0
20181216042505 23 146 2.0 2.0 0.00 0.00 0.00 65 1027.0
20181216042006 23 135 2.0 2.0 0.00 0.00 0.00 63 1027.0
20181216041505 23 135 2.0 2.0 0.00 0.00 0.00 64 1026.8
20181216041006 24 135 1.0 2.0 0.00 0.00 0.00 62 1026.9
20181216040506 24 135 2.0 2.0 0.00 0.00 0.00 62 1026.8
20181216040005 24 135 1.0 2.0 0.00 0.00 0.00 63 1026.9
20181216035505 24 135 2.0 2.0 0.00 0.00 0.00 62 1026.7
20181216035007 24 135 2.0 2.0 0.00 0.00 0.00 61 1026.7
20181216034505 25 135 2.0 2.0 0.00 0.00 0.00 62 1026.7
20181216034007 24 135 2.0 3.0 0.00 0.00 0.00 62 1026.7
20181216033008 25 135 1.0 2.0 0.00 0.00 0.00 61 1026.5
20181216032505 25 135 3.0 3.0 0.00 0.00 0.00 60 1026.5
20181216032007 25 135 3.0 4.0 0.00 0.00 0.00 61 1026.4
20181216031505 24 135 3.0 4.0 0.00 0.00 0.00 61 1026.3
20181216031006 24 135 3.0 4.0 0.00 0.00 0.00 60 1026.2
20181216030505 25 135 4.0 5.0 0.00 0.00 0.00 60 1026.2
20181216030007 25 135 4.0 5.0 0.00 0.00 0.00 59 1026.3
20181216025505 26 135 3.0 4.0 0.00 0.00 0.00 59 1026.3
20181216025005 27 112 3.0 3.0 0.00 0.00 0.00 59 1026.1
20181216024504 27 139 2.0 3.0 0.00 0.00 0.00 58 1026.3
20181216024005 28 157 2.0 3.0 0.00 0.00 0.00 57 1026.3
20181216023506 30 157 2.0 3.0 0.00 0.00 0.00 58 1026.3
20181216023006 30 157 2.0 3.0 0.00 0.00 0.00 58 1026.2
20181216022505 29 157 2.0 2.0 0.00 0.00 0.00 58 1026.2
20181216022006 29 157 1.0 2.0 0.00 0.00 0.00 57 1026.1
20181216021505 29 157 2.0 3.0 0.00 0.00 0.00 57 1025.9
20181216021007 30 157 2.0 3.0 0.00 0.00 0.00 56 1025.9
20181216020505 30 157 1.0 2.0 0.00 0.00 0.00 56 1025.9
20181216020006 30 157 1.0 2.0 0.00 0.00 0.00 55 1025.8
20181216015505 31 157 2.0 3.0 0.00 0.00 0.00 54 1025.7
20181216015007 32 157 1.0 2.0 0.00 0.00 0.00 53 1025.6
20181216014505 33 157 1.0 2.0 0.00 0.00 0.00 54 1025.6
20181216014007 33 157 2.0 3.0 0.00 0.00 0.00 52 1025.6
20181216013506 33 157 1.0 2.0 0.00 0.00 0.00 52 1025.6
20181216013007 33 157 1.0 2.0 0.00 0.00 0.00 52 1025.5
20181216012505 34 157 1.0 2.0 0.00 0.00 0.00 51 1025.5
20181216012006 34 157 1.0 2.0 0.00 0.00 0.00 51 1025.6
20181216011505 34 157 2.0 2.0 0.00 0.00 0.00 49 1025.4
20181216011006 35 337 0.0 0.0 0.00 0.00 0.00 48 1025.2
20181216010505 35 337 0.0 0.0 0.00 0.00 0.00 48 1025.3
20181216010008 36 337 0.0 0.0 0.00 0.00 0.00 48 1025.2
20181216005505 37 337 0.0 0.0 0.00 0.00 0.00 47 1025.2
20181216005007 37 337 0.0 0.0 0.00 0.00 0.00 46 1025.0
20181216004505 38 337 0.0 0.0 0.00 0.00 0.00 45 1025.3
20181216004005 39 337 0.0 0.0 0.00 0.00 0.00 45 1025.2
20181216003505 39 337 0.0 0.0 0.00 0.00 0.00 45 1025.2
20181216003007 39 337 0.0 0.0 0.00 0.00 0.00 44 1025.1
20181216002505 39 337 0.0 0.0 0.00 0.00 0.00 44 1025.1
20181216002006 40 337 0.0 0.0 0.00 0.00 0.00 43 1025.1
20181216001505 41 337 0.0 0.0 0.00 0.00 0.00 42 1024.8
20181216001007 41 337 0.0 0.0 0.00 0.00 0.00 42 1025.0
20181216000505 42 337 0.0 0.0 0.00 0.00 0.00 41 1024.8
20181216000007 43 337 0.0 0.0 0.00 0.00 0.00 40 1024.7
20181215235505 43 337 0.0 0.0 0.00 0.00 0.00 39 1024.6
20181215235006 44 337 0.0 0.0 0.00 0.00 0.00 38 1024.5
20181215234505 45 337 1.0 2.0 0.00 0.00 0.00 37 1024.5
20181215234006 45 337 2.0 2.0 0.00 0.00 0.00 37 1024.5
20181215233505 45 337 0.0 0.0 0.00 0.00 0.00 36 1024.5
20181215233007 45 337 1.0 1.0 0.00 0.00 0.00 36 1024.4
20181215232505 45 337 2.0 3.0 0.00 0.00 0.00 36 1024.3
20181215232006 45 337 3.0 3.0 0.00 0.00 0.00 36 1024.2
20181215231505 46 315 2.0 2.0 0.00 0.00 0.00 35 1024.3
20181215231007 46 292 4.0 4.0 0.00 0.00 0.00 35 1024.1
20181215230506 47 315 2.0 2.0 0.00 0.00 0.00 34 1024.0
20181215230007 47 292 1.0 2.0 0.00 0.00 0.00 34 1023.9
20181215225505 47 247 0.0 1.0 0.00 0.00 0.00 34 1023.7
20181215225006 48 247 1.0 2.0 0.00 0.00 0.00 34 1023.7
20181215224505 49 247 2.0 2.0 0.00 0.00 0.00 33 1023.6
20181215224006 50 270 3.0 4.0 0.00 0.00 0.00 33 1023.6
20181215223505 50 292 3.0 3.0 0.00 0.00 0.00 32 1023.6
20181215223007 51 292 2.0 3.0 0.00 0.00 0.00 32 1023.4
20181215222506 52 292 4.0 5.0 0.00 0.00 0.00 31 1023.4
20181215222005 52 292 3.0 4.0 0.00 0.00 0.00 31 1023.3
20181215221505 53 336 3.0 3.0 0.00 0.00 0.00 30 1023.3
20181215221007 53 292 3.0 4.0 0.00 0.00 0.00 29 1023.3
20181215220505 54 292 4.0 4.0 0.00 0.00 0.00 29 1023.3
20181215220008 54 292 5.0 5.0 0.00 0.00 0.00 28 1023.4
20181215215505 55 292 6.0 8.0 0.00 0.00 0.00 28 1023.4
20181215215006 55 276 5.0 7.0 0.00 0.00 0.00 27 1023.3
20181215214505 56 286 4.0 6.0 0.00 0.00 0.00 27 1023.1
20181215214007 56 292 6.0 7.0 0.00 0.00 0.00 27 1023.1
20181215213505 57 280 6.0 8.0 0.00 0.00 0.00 27 1023.0
20181215213007 57 281 7.0 9.0 0.00 0.00 0.00 25 1023.0
20181215212505 57 271 6.0 8.0 0.00 0.00 0.00 26 1022.8
20181215212005 57 266 7.0 9.0 0.00 0.00 0.00 26 1022.7
20181215211505 57 292 8.0 10.0 0.00 0.00 0.00 26 1022.6
20181215211006 57 272 6.0 8.0 0.00 0.00 0.00 26 1022.7
20181215210505 57 273 6.0 8.0 0.00 0.00 0.00 27 1022.6
20181215210007 57 292 7.0 8.0 0.00 0.00 0.00 27 1022.5
20181215205506 57 269 6.0 8.0 0.00 0.00 0.00 27 1022.5
20181215205006 57 281 5.0 6.0 0.00 0.00 0.00 27 1022.6
20181215204505 57 259 4.0 6.0 0.00 0.00 0.00 27 1022.5
20181215204006 56 279 4.0 6.0 0.00 0.00 0.00 28 1022.4
20181215203505 56 292 4.0 5.0 0.00 0.00 0.00 28 1022.5
20181215203008 56 292 4.0 5.0 0.00 0.00 0.00 28 1022.3
20181215202505 56 292 4.0 5.0 0.00 0.00 0.00 28 1022.4
20181215202007 56 292 3.0 4.0 0.00 0.00 0.00 28 1022.4
20181215201505 56 292 3.0 4.0 0.00 0.00 0.00 28 1022.4
20181215201006 56 334 3.0 4.0 0.00 0.00 0.00 28 1022.3
20181215200505 56 292 2.0 2.0 0.00 0.00 0.00 27 1022.3
20181215200007 56 292 2.0 3.0 0.00 0.00 0.00 27 1022.3
20181215195505 56 292 3.0 5.0 0.00 0.00 0.00 26 1022.2
20181215195006 56 328 4.0 5.0 0.00 0.00 0.00 25 1022.2
20181215194505 56 337 4.0 6.0 0.00 0.00 0.00 25 1022.3
20181215194007 56 298 5.0 7.0 0.00 0.00 0.00 25 1022.3
20181215193505 56 292 7.0 8.0 0.00 0.00 0.00 25 1022.4
20181215193007 56 285 6.0 8.0 0.00 0.00 0.00 25 1022.3
20181215192505 57 284 6.0 8.0 0.00 0.00 0.00 24 1022.3
20181215192007 57 269 6.0 8.0 0.00 0.00 0.00 24 1022.2
20181215191505 57 292 6.0 8.0 0.00 0.00 0.00 24 1022.2
20181215191007 57 292 7.0 9.0 0.00 0.00 0.00 24 1022.0
20181215190505 57 272 6.0 8.0 0.00 0.00 0.00 24 1022.2
20181215190006 57 257 7.0 8.0 0.00 0.00 0.00 24 1022.2
20181215185505 57 248 6.0 7.0 0.00 0.00 0.00 24 1022.2
20181215185005 57 248 5.0 6.0 0.00 0.00 0.00 25 1022.2
20181215184505 56 251 4.0 5.0 0.00 0.00 0.00 25 1022.4
20181215184007 56 247 4.0 5.0 0.00 0.00 0.00 25 1022.4
20181215183505 56 247 4.0 5.0 0.00 0.00 0.00 25 1022.6
20181215183006 56 247 5.0 6.0 0.00 0.00 0.00 26 1022.6
20181215182505 56 270 3.0 4.0 0.00 0.00 0.00 26 1022.5
20181215182007 56 267 3.0 5.0 0.00 0.00 0.00 26 1022.5
20181215181505 55 261 4.0 5.0 0.00 0.00 0.00 26 1022.6
20181215181006 55 247 4.0 6.0 0.00 0.00 0.00 26 1022.6
20181215180505 55 232 6.0 7.0 0.00 0.00 0.00 26 1022.6
20181215180007 55 222 5.0 8.0 0.00 0.00 0.00 26 1022.6
20181215175505 55 234 6.0 8.0 0.00 0.00 0.00 27 1022.6
20181215175007 55 233 6.0 9.0 0.00 0.00 0.00 27 1022.7
20181215174505 55 233 5.0 7.0 0.00 0.00 0.00 27 1022.8
20181215174005 55 210 5.0 7.0 0.00 0.00 0.00 28 1022.7
20181215173505 54 208 5.0 8.0 0.00 0.00 0.00 28 1022.7
20181215173007 53 202 5.0 8.0 0.00 0.00 0.00 29 1022.8
20181215172505 53 210 5.0 8.0 0.00 0.00 0.00 30 1022.8
20181215172005 52 188 4.0 7.0 0.00 0.00 0.00 31 1022.8
20181215171506 51 178 4.0 6.0 0.00 0.00 0.00 32 1022.8
20181215171006 50 224 4.0 7.0 0.00 0.00 0.00 34 1023.0
20181215170505 48 196 3.0 5.0 0.00 0.00 0.00 36 1023.1
20181215170006 47 189 3.0 5.0 0.00 0.00 0.00 38 1023.1
20181215165505 45 180 1.0 3.0 0.00 0.00 0.00 40 1023.1
20181215165005 44 157 1.0 2.0 0.00 0.00 0.00 42 1023.0
20181215164505 43 157 1.0 2.0 0.00 0.00 0.00 43 1023.0
20181215164007 42 157 1.0 2.0 0.00 0.00 0.00 45 1023.2
20181215163505 41 157 2.0 3.0 0.00 0.00 0.00 45 1023.3
20181215163007 40 157 1.0 1.0 0.00 0.00 0.00 47 1023.3
20181215162505 40 157 0.0 1.0 0.00 0.00 0.00 48 1023.1
20181215162006 39 157 0.0 0.0 0.00 0.00 0.00 49 1023.0
20181215161505 38 157 0.0 0.0 0.00 0.00 0.00 49 1022.9
20181215161006 37 157 0.0 0.0 0.00 0.00 0.00 50 1023.0
20181215160505 37 157 0.0 1.0 0.00 0.00 0.00 51 1022.9
20181215160008 36 157 1.0 2.0 0.00 0.00 0.00 52 1022.8
20181215155506 35 157 0.0 0.0 0.00 0.00 0.00 54 1022.7
20181215155005 34 157 0.0 0.0 0.00 0.00 0.00 55 1022.7
20181215154505 34 157 0.0 0.0 0.00 0.00 0.00 55 1022.5
20181215154006 33 157 0.0 0.0 0.00 0.00 0.00 55 1022.5
20181215153505 32 157 0.0 0.0 0.00 0.00 0.00 57 1022.6
20181215153006 32 157 0.0 1.0 0.00 0.00 0.00 61 1022.7
20181215152505 30 202 0.0 0.0 0.00 0.00 0.00 64 1022.6
20181215152007 28 202 0.0 0.0 0.00 0.00 0.00 66 1022.4
20181215151505 27 202 0.0 1.0 0.00 0.00 0.00 66 1022.5
20181215151006 26 202 0.0 0.0 0.00 0.00 0.00 67 1022.4
20181215150505 25 202 0.0 0.0 0.00 0.00 0.00 68 1022.3
20181215150006 23 202 0.0 0.0 0.00 0.00 0.00 69 1022.2
20181215145505 22 202 0.0 0.0 0.00 0.00 0.00 67 1022.2
20181215145006 22 202 0.0 0.0 0.00 0.00 0.00 67 1022.1
20181215144504 22 202 0.0 0.0 0.00 0.00 0.00 66 1022.2
20181215144006 22 202 0.0 0.0 0.00 0.00 0.00 66 1022.1
20181215143505 22 202 0.0 0.0 0.00 0.00 0.00 66 1022.1
20181215143007 22 202 1.0 2.0 0.00 0.00 0.00 65 1022.0
20181215142505 22 202 0.0 0.0 0.00 0.00 0.00 65 1022.1
20181215142006 22 202 0.0 0.0 0.00 0.00 0.00 65 1022.1
20181215141506 22 202 2.0 3.0 0.00 0.00 0.00 64 1022.0
20181215141006 22 202 2.0 3.0 0.00 0.00 0.00 64 1022.1
20181215140505 22 202 1.0 2.0 0.00 0.00 0.00 64 1022.0
20181215140008 22 202 2.0 3.0 0.00 0.00 0.00 64 1022.0
20181215135505 23 202 4.0 6.0 0.00 0.00 0.00 64 1022.0